When you browse on this site, cookies collect data to enhance your experience and personalize the content and advertising you see.
Visit our Privacy Policy to learn more. By continuing to use the site, you agree to this use of cookies and data.
  • In Lithuania
  • List of Countries
  • For 7 days
  • Water Temperature
  • Satellite Maps
  • Weather Map
  • Weather Widgets
  • user-avatar
    Login

    Hourly Weather Syamzha

    Today, 18 March, Monday

    Time Temperature Precipitation Wind Pressure Humidity
    00:00 -2°C° 0 mm 2 mps 747 mmHg 93%
    01:00 -2°C° 0 mm 3 mps 747 mmHg 93%
    02:00 -2°C° 0 mm 3 mps 747 mmHg 93%
    03:00 -2°C° 0 mm 3 mps 747 mmHg 94%
    04:00 -2°C° 0 mm 3 mps 747 mmHg 94%
    05:00 -2°C° 0 mm 3 mps 747 mmHg 94%
    06:00 -4°C° 0 mm 3 mps 747 mmHg 95%
    07:00 -2°C° 0 mm 3 mps 747 mmHg 93%
    08:00 -2°C° 0 mm 4 mps 747 mmHg 91%
    09:00 -2°C° 0 mm 4 mps 747 mmHg 89%
    10:00 -1°C° 0 mm 4 mps 747 mmHg 90%
    11:00 -1°C° 0 mm 4 mps 747 mmHg 90%
    12:00 -1°C° 0 mm 4 mps 748 mmHg 91%
    13:00 -1°C° 0 mm 4 mps 747 mmHg 92%
    14:00 -1°C° 0 mm 4 mps 747 mmHg 92%
    15:00 0°C° 0 mm 4 mps 747 mmHg 95%
    16:00 0°C° 0 mm 4 mps 747 mmHg 94%
    17:00 0°C° 0 mm 4 mps 747 mmHg 93%
    18:00 0°C° 0 mm 5 mps 747 mmHg 92%
    19:00 -1°C° 0 mm 5 mps 747 mmHg 92%
    20:00 -1°C° 0 mm 5 mps 746 mmHg 91%
    21:00 -1°C° 0 mm 5 mps 746 mmHg 90%
    22:00 -1°C° 0 mm 5 mps 746 mmHg 90%
    23:00 -1°C° 0 mm 5 mps 746 mmHg 90%

    Tomorrow, 19 March, Tuesday

    Time Temperature Precipitation Wind Pressure Humidity
    00:00 -1°C° 0 mm 5 mps 746 mmHg 89%
    01:00 -1°C° 0.1 mm 5 mps 746 mmHg 89%
    02:00 -1°C° 0.1 mm 5 mps 746 mmHg 90%
    03:00 -1°C° 0.1 mm 5 mps 746 mmHg 90%
    04:00 -1°C° 0.1 mm 5 mps 746 mmHg 90%
    05:00 -1°C° 0.1 mm 4 mps 745 mmHg 91%
    06:00 -1°C° 0.1 mm 4 mps 745 mmHg 92%
    07:00 -1°C° 0.6 mm 4 mps 746 mmHg 93%
    08:00 -1°C° 0.6 mm 4 mps 746 mmHg 93%
    09:00 0°C° 0.6 mm 3 mps 746 mmHg 94%
    10:00 0°C° 0.7 mm 3 mps 746 mmHg 96%
    11:00 0°C° 0.7 mm 3 mps 746 mmHg 97%
    12:00 0°C° 0.7 mm 3 mps 746 mmHg 98%
    13:00 +1°C° 0.4 mm 2 mps 746 mmHg 98%
    14:00 +1°C° 0.4 mm 2 mps 746 mmHg 99%
    15:00 +1°C° 0.4 mm 2 mps 746 mmHg 99%
    16:00 +1°C° 0 mm 2 mps 746 mmHg 99%
    17:00 +1°C° 0 mm 2 mps 746 mmHg 99%
    18:00 +1°C° 0 mm 2 mps 746 mmHg 99%
    19:00 +1°C° 0 mm 2 mps 746 mmHg 99%
    20:00 +1°C° 0 mm 2 mps 747 mmHg 98%
    21:00 +1°C° 0 mm 2 mps 747 mmHg 97%
    22:00 +1°C° 0 mm 2 mps 747 mmHg 97%
    23:00 +1°C° 0 mm 2 mps 747 mmHg 97%

    Day after tomorrow, 20 March, Wednesday

    Time Temperature Precipitation Wind Pressure Humidity
    00:00 +1°C° 0 mm 2 mps 747 mmHg 96%
    01:00 -1°C° 0 mm 2 mps 747 mmHg 97%
    02:00 -1°C° 0 mm 2 mps 747 mmHg 97%
    03:00 -1°C° 0 mm 2 mps 747 mmHg 97%
    04:00 -1°C° 0 mm 2 mps 746 mmHg 96%
    05:00 -1°C° 0 mm 2 mps 746 mmHg 96%
    06:00 -1°C° 0 mm 2 mps 746 mmHg 96%
    07:00 -1°C° 0.2 mm 2 mps 746 mmHg 96%
    08:00 -1°C° 0.2 mm 2 mps 746 mmHg 97%
    09:00 -1°C° 0.2 mm 2 mps 746 mmHg 97%
    10:00 +1°C° 0.1 mm 2 mps 746 mmHg 98%
    11:00 +1°C° 0.1 mm 2 mps 746 mmHg 99%
    12:00 +1°C° 0.1 mm 2 mps 745 mmHg 99%
    13:00 +1°C° 0 mm 2 mps 745 mmHg 99%
    14:00 +1°C° 0 mm 2 mps 745 mmHg 99%
    15:00 +1°C° 0 mm 2 mps 745 mmHg 99%
    16:00 +1°C° 0.1 mm 2 mps 745 mmHg 98%
    17:00 +1°C° 0.1 mm 2 mps 745 mmHg 98%
    18:00 +1°C° 0.1 mm 2 mps 745 mmHg 97%
    19:00 -1°C° 0 mm 2 mps 745 mmHg 97%
    20:00 -1°C° 0 mm 2 mps 745 mmHg 96%
    21:00 -1°C° 0 mm 2 mps 745 mmHg 96%
    22:00 -2°C° 0 mm 2 mps 745 mmHg 96%
    23:00 -2°C° 0 mm 2 mps 744 mmHg 95%

    21 March, Thursday

    Time Temperature Precipitation Wind Pressure Humidity
    00:00 -3°C° 0 mm 2 mps 744 mmHg 95%
    01:00 -1°C° 0 mm 1 mps 744 mmHg 95%
    02:00 -2°C° 0 mm 1 mps 744 mmHg 96%
    03:00 -2°C° 0 mm 1 mps 744 mmHg 96%
    04:00 -2°C° 0 mm 1 mps 744 mmHg 96%
    05:00 -3°C° 0 mm 1 mps 744 mmHg 96%
    06:00 -3°C° 0 mm 1 mps 744 mmHg 96%
    07:00 -2°C° 0 mm 1 mps 744 mmHg 96%
    08:00 -1°C° 0 mm 1 mps 744 mmHg 95%
    09:00 0°C° 0 mm 1 mps 745 mmHg 94%
    10:00 +1°C° 0 mm 1 mps 745 mmHg 95%
    11:00 +1°C° 0 mm 1 mps 745 mmHg 95%
    12:00 +2°C° 0 mm 1 mps 745 mmHg 95%
    13:00 +2°C° 0 mm 1 mps 745 mmHg 94%
    14:00 +2°C° 0 mm 1 mps 746 mmHg 92%
    15:00 +2°C° 0 mm 1 mps 746 mmHg 91%
    16:00 +2°C° 0 mm 1 mps 746 mmHg 92%
    17:00 +1°C° 0 mm 1 mps 746 mmHg 92%
    18:00 +1°C° 0 mm 1 mps 746 mmHg 93%
    19:00 +1°C° 0 mm 1 mps 746 mmHg 94%
    20:00 0°C° 0 mm 1 mps 746 mmHg 94%
    21:00 0°C° 0 mm 1 mps 746 mmHg 94%
    22:00 -2°C° 0 mm 2 mps 746 mmHg 94%
    23:00 -2°C° 0 mm 2 mps 746 mmHg 94%

    22 March, Friday

    Time Temperature Precipitation Wind Pressure Humidity
    00:00 -2°C° 0 mm 2 mps 746 mmHg 94%
    01:00 -2°C° 0.1 mm 2 mps 746 mmHg 95%
    02:00 -2°C° 0.1 mm 2 mps 745 mmHg 95%
    03:00 -3°C° 0.1 mm 2 mps 745 mmHg 96%
    04:00 -2°C° 0 mm 3 mps 745 mmHg 95%
    05:00 -2°C° 0 mm 3 mps 744 mmHg 95%
    06:00 -2°C° 0 mm 3 mps 744 mmHg 94%
    07:00 -2°C° 0.2 mm 3 mps 743 mmHg 93%
    08:00 -3°C° 0.2 mm 4 mps 743 mmHg 92%
    09:00 -3°C° 0.2 mm 4 mps 742 mmHg 91%
    10:00 -2°C° 0.3 mm 4 mps 742 mmHg 92%
    11:00 -2°C° 0.3 mm 4 mps 741 mmHg 92%
    12:00 -1°C° 0.3 mm 4 mps 741 mmHg 92%
    13:00 -1°C° 0.1 mm 4 mps 741 mmHg 93%
    14:00 0°C° 0.1 mm 3 mps 740 mmHg 94%
    15:00 +1°C° 0.1 mm 3 mps 740 mmHg 95%
    16:00 0°C° 0.1 mm 3 mps 740 mmHg 93%
    17:00 +1°C° 0.1 mm 2 mps 739 mmHg 92%
    18:00 +1°C° 0.1 mm 2 mps 739 mmHg 91%
    19:00 +1°C° 0 mm 2 mps 738 mmHg 92%
    20:00 -1°C° 0 mm 2 mps 738 mmHg 93%
    21:00 -1°C° 0 mm 2 mps 737 mmHg 94%
    22:00 -1°C° 0.5 mm 2 mps 736 mmHg 94%
    23:00 -1°C° 0.5 mm 3 mps 734 mmHg 95%

    23 March, Saturday

    Time Temperature Precipitation Wind Pressure Humidity
    00:00 -1°C° 0.5 mm 3 mps 733 mmHg 96%
    01:00 -1°C° 0.9 mm 3 mps 732 mmHg 95%
    02:00 -1°C° 0.9 mm 3 mps 730 mmHg 95%
    03:00 0°C° 0.9 mm 3 mps 729 mmHg 95%
    04:00 +1°C° 0.9 mm 2 mps 728 mmHg 96%
    05:00 +1°C° 0.9 mm 2 mps 727 mmHg 97%
    06:00 +2°C° 0.9 mm 1 mps 726 mmHg 98%
    07:00 +2°C° 0.7 mm 1 mps 726 mmHg 98%
    08:00 +2°C° 0.7 mm 1 mps 726 mmHg 99%
    09:00 +2°C° 0.7 mm 1 mps 726 mmHg 99%
    10:00 +1°C° 0.4 mm 2 mps 726 mmHg 98%
    11:00 0°C° 0.4 mm 3 mps 727 mmHg 96%
    12:00 -1°C° 0.4 mm 4 mps 727 mmHg 95%
    13:00 -1°C° 0.3 mm 5 mps 728 mmHg 93%
    14:00 -1°C° 0.3 mm 5 mps 729 mmHg 91%
    15:00 -2°C° 0.3 mm 6 mps 730 mmHg 89%
    16:00 -2°C° 0.3 mm 6 mps 731 mmHg 88%
    17:00 -3°C° 0.3 mm 6 mps 732 mmHg 87%
    18:00 -3°C° 0.3 mm 6 mps 732 mmHg 85%
    19:00 -3°C° 0.2 mm 6 mps 733 mmHg 86%
    20:00 -3°C° 0.2 mm 6 mps 734 mmHg 86%
    21:00 -4°C° 0.2 mm 6 mps 735 mmHg 86%
    22:00 -4°C° 0.1 mm 6 mps 736 mmHg 86%
    23:00 -4°C° 0.1 mm 5 mps 736 mmHg 86%
    Show more